Weather History for KONO - August, 2013

Change the Weather History Date:

Sunday, August 18, 2013

  Actual Average Record
Temperature  
Mean Temperature 84 °F 73 °F  
Max Temperature 98 °F 92 °F 105 °F (1967)
Min Temperature 70 °F 54 °F 38 °F (1995)
Degree Days  
Heating Degree Days 0 0  
Month to date heating degree days 0 0  
Since 1 June heating degree days 39 57  
Since 1 July heating degree days 0 5  
Cooling Degree Days 19 8  
Month to date cooling degree days 259 187  
Year to date cooling degree days 1015 710  
Since 1 June cooling degree days 968 674  
Growing Degree Days 34 (Base 50)    
Moisture  
Dew Point 47 °F    
Average Humidity 31    
Maximum Humidity 44    
Minimum Humidity 17    
Precipitation  
Precipitation 0.00 in 0.00 in 0.25 in (1968)
Month to date precipitation T 0.09  
Year to date precipitation 2.61 6.15  
Sea Level Pressure  
Sea Level Pressure 29.93 in    
Wind  
Wind Speed 9 mph (NW)    
Max Wind Speed 20 mph    
Max Gust Speed 25 mph    
Visibility 10 miles    
Events      
T = Trace of Precipitation, MM = Missing Value Source: NWS Daily Summary

Daily Weather History Graph

Daily Weather History Graph

Search for Another Location

Airport or City:

Trip Planner

Search our weather history database for the weather conditions in past years. The results will help you decide how hot, cold, wet, or windy it might be!

Date:

Astronomy

Aug. 18, 2013 Rise Set
Actual Time 6:55 AM MDT 8:47 PM MDT
Civil Twilight 6:24 AM MDT 9:17 PM MDT
Nautical Twilight 5:46 AM MDT 9:55 PM MDT
Astronomical Twilight 5:05 AM MDT 10:36 PM MDT
Moon 6:58 PM MDT (8/18) 4:07 AM MDT (8/18)
Length of Visible Light 14h 53m
Length of Day
13h 51m
Waxing Gibbous, 92% of the Moon is Illuminated
Aug 18
Waxing Gibbous
Aug 20
Full
Aug 28
Last Quarter
Sep 5
New
Sep 12
First Quarter

Hourly Weather History & Observations

Time (MDT) Temp. Dew Point Humidity Pressure Visibility Wind Dir Wind Speed Gust Speed Precip Events Conditions
12:53 AM 77.0 °F 50.0 °F 39% 29.90 in 10.0 mi WNW 13.8 mph - N/A   Clear
1:53 AM 77.0 °F 48.9 °F 37% 29.91 in 10.0 mi NW 17.3 mph 23.0 mph N/A   Clear
2:53 AM 75.0 °F 48.9 °F 40% 29.92 in 10.0 mi WNW 16.1 mph - N/A   Clear
3:53 AM 75.0 °F 48.0 °F 38% 29.93 in 10.0 mi NW 16.1 mph - N/A   Clear
4:53 AM 73.9 °F 48.0 °F 40% 29.94 in 10.0 mi WNW 16.1 mph - N/A   Clear
5:53 AM 73.0 °F 48.0 °F 41% 29.94 in 10.0 mi WNW 9.2 mph - N/A   Clear
6:53 AM 71.1 °F 48.0 °F 44% 29.98 in 10.0 mi WNW 8.1 mph - N/A   Clear
7:53 AM 72.0 °F 48.0 °F 43% 29.99 in 10.0 mi West 9.2 mph - N/A   Clear
8:53 AM 75.0 °F 48.0 °F 38% 30.01 in 10.0 mi West 8.1 mph - N/A   Clear
9:53 AM 81.0 °F 46.9 °F 30% 30.01 in 10.0 mi WNW 10.4 mph - N/A   Clear
10:53 AM 84.9 °F 46.0 °F 26% 30.00 in 10.0 mi NNW 6.9 mph - N/A   Clear
11:53 AM 86.0 °F 46.0 °F 25% 30.00 in 10.0 mi Calm Calm - N/A   Clear
12:53 PM 90.0 °F 45.0 °F 21% 29.98 in 10.0 mi SW 4.6 mph - N/A   Clear
1:53 PM 90.0 °F 52.0 °F 27% 29.96 in 10.0 mi SE 5.8 mph - N/A   Clear
2:53 PM 93.0 °F 52.0 °F 25% 29.94 in 10.0 mi Variable 3.5 mph - N/A   Clear
3:53 PM 93.0 °F 52.0 °F 25% 29.92 in 10.0 mi East 4.6 mph - N/A   Clear
4:53 PM 96.1 °F 50.0 °F 21% 29.88 in 10.0 mi East 4.6 mph - N/A   Clear
5:53 PM 97.0 °F 46.0 °F 18% 29.87 in 10.0 mi ENE 5.8 mph - N/A   Clear
6:53 PM 97.0 °F 44.1 °F 16% 29.85 in 10.0 mi North 6.9 mph - N/A   Clear
7:53 PM 95.0 °F 45.0 °F 18% 29.84 in 10.0 mi Calm Calm - N/A   Clear
8:53 PM 86.0 °F 48.0 °F 27% 29.85 in 10.0 mi NW 4.6 mph - N/A   Clear
9:53 PM 86.0 °F 41.0 °F 20% 29.88 in 10.0 mi NNW 15.0 mph - N/A   Clear
10:53 PM 84.0 °F 41.0 °F 22% 29.90 in 10.0 mi NNW 12.7 mph - N/A   Clear
11:53 PM 82.0 °F 41.0 °F 23% 29.92 in 10.0 mi NW 11.5 mph - N/A   Clear